Regional Weather Roundup
Issued by NWS Green Bay, WI

Home | Current Version | Previous Version | Graphics & Text | Print | Product List | Glossary Off
Versions: 1 2 3 4 5 6 7 8 9 10 11 12 13 14 15 16 17 18 19 20 21 22 23 24 25 26 27 28 29 30 31 32 33 34 35 36 37 38 39 40 41 42 43 44 45 46 47 48 49 50

000
ASUS43 KGRB 060700
RWRGRB

NORTH-CENTRAL AND NORTHEAST WISCONSIN REGIONAL WEATHER ROUNDUP
NATIONAL WEATHER SERVICE GREEN BAY WI
200 AM CDT FRI MAY 06 2016

WIZ005-009-010>012-018-019-060800-
NORTH CENTRAL WISCONSIN

CITY           SKY/WX    TMP DP  RH WIND       PRES   REMARKS
IRONWOOD         N/A     59  37  44 S5        29.79F
MANITOWISH WTR NOT AVBL
ARBOR VITAE    NOT AVBL
EAGLE RIVER    NOT AVBL
LAND O LAKES   NOT AVBL
RHINELANDER    CLEAR     53  37  54 SW5       29.89F
PHILLIPS       CLEAR     53  38  55 S5        29.86F
ANTIGO         NOT AVBL
TOMAHAWK       NOT AVBL
MERRILL        CLEAR     42  40  92 CALM      29.91S
$$

WIZ013-073-060800-
NORTHEAST WISCONSIN

CITY           SKY/WX    TMP DP  RH WIND       PRES   REMARKS
IRON MOUNTAIN  CLOUDY    49  39  68 CALM      29.85F
MARINETTE      CLOUDY    52  43  71 SE6       29.89F
$$

WIZ017-030-035>037-045-060800-
CENTRAL WISCONSIN

CITY           SKY/WX    TMP DP  RH WIND       PRES   REMARKS
MEDFORD        NOT AVBL
WAUSAU         CLEAR     53  41  63 S5        29.89F
MOSINEE        NOT AVBL
MARSHFIELD     CLEAR     51  39  63 S5        29.90F
WISC RAPIDS    CLEAR     47  38  71 SW6       29.92F
STEVENS POINT  NOT AVBL
WAUPACA        NOT AVBL
SHAWANO        MOCLDY    54  37  52 CALM      29.90F
CLINTONVILLE   NOT AVBL
WAUTOMA        NOT AVBL
$$

WIZ038-039-048-051-060800-
FOX VALLEY

CITY           SKY/WX    TMP DP  RH WIND       PRES   REMARKS
NWS GREEN BAY  CLOUDY    50  42  74 SW3       29.91F
APPLETON       NOT AVBL
OSHKOSH        PTCLDY    50  36  58 S5        29.92F
FOND DU LAC    MOCLDY    48  40  73 SW3       29.93F
$$

WIZ022-050-052-060800-
EAST CENTRAL WISCONSIN

CITY           SKY/WX    TMP DP  RH WIND       PRES   REMARKS
EPHRAIM        NOT AVBL
STURGEON BAY   MOCLDY    48  39  71 S8        29.93S
MANITOWOC      NOT AVBL
SHEBOYGAN      MOCLDY    46  40  79 CALM      29.94S
$$

LMZ563-521-522-541>543-060800-
LAKESHORE

STATION/POSITION TIME  TEMP    WIND        PRES    VSBY  WAVE
                       AIR SEA DIR/SP/G                  HT/PER
                 (UTC) (F)     (DEG/KT/KT) (MB)    (MI)  (FT/S)
SHEBOYGAN LKSHOR 0600   48     210/  9/  9 1014.4F
KEWAUNEE LKSHORE 0600   49     160/  5/  7 1012.3F
ALGOMA MARINA    0615          220/  9/ 11   N/A
NORTHPORT PIER   0600   50     170/  5/ 11 1012.5S
N MID LAKE BUOY  0550   40 39  190/  8/  8 1013.1F         0
CHAMBERS ISLAND  0600   51     180/  7/ 11 1012.5F
MENOMINEE LKSHOR 0600   51     200/  8/ 10 1011.2F
$$




USA.gov is the U.S. government's official web portal to all federal, state and local government web resources and services.